GW7293 Weather Reports


time (UTC)temp
C
wind
direction
speed
KPH
gust
KPH
rain 1hr
cm
rain 24hr
cm
rain mn
cm
humidity
%
barometer
mb
20260504151047 21 232 16.1 27.4 0.00 0.00 0.00 72 1011.5
20260504141027 20 229 14.5 24.1 0.00 0.00 0.00 78 1012.1
20260504120119 20 240 16.1 30.6 0.00 0.00 0.00 79 1012.8
20260504081027 18 144 3.2 6.4 0.00 0.56 0.00 89 1012.8
20260504050019 15 92 1.6 3.2 0.00 0.61 0.00 95 1012.3
20260504045027 15 228 0.0 3.2 0.00 0.61 0.00 95 1012.4
20260504044019 15 0.0 3.2 0.00 0.61 0.00 95 1012.4
20260504043027 15 8 1.6 3.2 0.00 0.61 0.00 95 1012.4
20260504042019 15 201 1.6 4.8 0.00 0.61 0.00 94 1012.6
20260504041027 15 171 1.6 3.2 0.00 0.61 0.00 95 1012.4
20260504040019 15 235 0.0 3.2 0.00 0.61 0.00 94 1012.4
20260504035027 15 247 1.6 3.2 0.00 0.61 0.00 94 1012.4
20260504034019 16 19 1.6 3.2 0.00 0.61 0.00 94 1012.7
20260504033027 15 353 3.2 4.8 0.00 0.61 0.00 94 1012.9
20260504032019 16 243 3.2 8.0 0.00 0.61 0.00 94 1013.0
20260504031027 15 204 4.8 6.4 0.00 0.61 0.00 94 1012.9
20260504030019 15 193 3.2 6.4 0.00 0.61 0.00 94 1012.9
20260504025027 15 244 0.0 3.2 0.00 0.61 0.00 94 1013.0
20260504024019 16 0.0 1.6 0.00 0.61 0.00 94 1012.9
20260504023027 16 330 1.6 3.2 0.00 0.61 0.00 93 1012.9
20260504022059 16 264 1.6 6.4 0.00 0.61 0.00 93 1013.1
20260504021027 16 283 1.6 3.2 0.00 0.61 0.00 93 1013.0
20260504020019 16 351 3.2 6.4 0.00 0.61 0.00 93 1013.0
20260504015027 16 245 1.6 3.2 0.00 0.61 0.00 93 1013.1
20260504014019 16 242 1.6 3.2 0.00 0.61 0.00 93 1013.2
20260504013027 16 283 1.6 4.8 0.00 0.61 0.00 93 1013.2
20260504012019 16 235 3.2 9.7 0.00 0.61 0.00 93 1013.3
20260504011027 16 242 3.2 9.7 0.00 0.61 0.00 93 1013.3
20260504010019 16 234 6.4 14.5 0.00 0.61 0.00 93 1013.4
20260504005027 16 181 9.7 17.7 0.00 0.61 0.00 93 1013.4
20260504004019 16 189 8.0 14.5 0.00 0.61 0.00 93 1013.6
20260504003107 16 193 6.4 11.3 0.00 0.61 0.00 93 1013.9
20260504002019 16 207 4.8 9.7 0.00 0.61 0.00 92 1014.1
20260504001026 16 187 8.0 14.5 0.00 0.61 0.00 92 1013.9
20260504000019 16 182 6.4 8.0 0.00 0.61 0.00 93 1013.8
20260503235027 15 207 3.2 6.4 0.00 0.61 0.61 93 1013.7
20260503234019 15 238 4.8 6.4 0.00 0.61 0.61 93 1013.8
20260503233027 15 207 1.6 3.2 0.00 0.61 0.61 93 1013.7
20260503232019 16 266 1.6 3.2 0.00 0.61 0.61 92 1013.7
20260503231027 16 189 1.6 4.8 0.00 0.61 0.61 92 1013.7
20260503230039 16 171 3.2 4.8 0.00 0.61 0.61 92 1013.7
20260503225048 16 199 0.0 3.2 0.00 0.61 0.61 92 1013.7
20260503224019 16 80 0.0 3.2 0.00 0.61 0.61 92 1013.6
20260503223028 16 191 1.6 3.2 0.00 0.61 0.61 91 1013.8
20260503222020 16 182 1.6 3.2 0.00 0.61 0.61 91 1013.6
20260503221027 16 177 3.2 4.8 0.00 0.61 0.61 91 1013.4
20260503220039 16 150 3.2 4.8 0.00 0.61 0.61 91 1013.5
20260503215048 16 153 3.2 4.8 0.00 0.61 0.61 91 1013.5
20260503214020 16 180 4.8 6.4 0.00 0.61 0.61 91 1013.5
20260503213027 16 188 3.2 4.8 0.00 0.61 0.61 91 1013.6
20260503212019 16 192 1.6 4.8 0.00 0.61 0.61 90 1013.5
20260503211048 16 161 1.6 3.2 0.00 0.61 0.61 90 1013.4
20260503210019 16 68 3.2 3.2 0.00 0.61 0.61 89 1013.4
20260503205027 16 0.0 1.6 0.00 0.61 0.61 89 1013.4
20260503204019 16 79 1.6 6.4 0.00 0.61 0.61 88 1013.3
20260503203047 16 61 4.8 6.4 0.00 0.61 0.61 88 1013.2
20260503202059 17 53 3.2 4.8 0.00 0.61 0.61 87 1013.3
20260503201047 17 76 3.2 4.8 0.00 0.61 0.61 87 1013.4
20260503200018 17 79 3.2 6.4 0.00 0.61 0.61 86 1013.2
20260503195027 17 73 6.4 11.3 0.00 0.61 0.61 85 1012.9
20260503194019 17 48 4.8 8.0 0.00 0.61 0.61 84 1013.2
20260503193047 17 71 6.4 9.7 0.00 0.61 0.61 83 1013.2
20260503192019 17 64 8.0 12.9 0.00 0.61 0.61 82 1013.2
20260503191046 17 48 6.4 9.7 0.00 0.61 0.61 82 1013.1
20260503190019 17 74 3.2 4.8 0.00 0.61 0.61 81 1013.3
20260503185047 18 85 3.2 4.8 0.00 0.61 0.61 80 1013.4
20260503184019 18 86 4.8 8.0 0.00 0.61 0.61 79 1013.2
20260503183047 18 51 0.0 3.2 0.00 0.61 0.61 79 1013.3
20260503182019 18 0.0 3.2 0.00 0.61 0.61 77 1013.3
20260503181027 18 63 3.2 6.4 0.00 0.61 0.61 77 1013.2
20260503180019 18 62 4.8 6.4 0.00 0.61 0.61 76 1013.2
20260503175027 18 58 3.2 6.4 0.00 0.61 0.61 76 1013.2
20260503174019 19 51 8.0 12.9 0.00 0.61 0.61 75 1013.1
20260503173027 19 64 8.0 16.1 0.00 0.61 0.61 75 1013.1
20260503172019 19 63 9.7 14.5 0.00 0.61 0.61 74 1013.0
20260503171027 20 53 9.7 14.5 0.00 0.61 0.61 72 1013.2